Weather History for Key West, FL

Change the Weather History Date:

Sunday, November 11, 2012

  Actual Average Record
Temperature  
Mean Temperature 75 °F 76 °F  
Max Temperature 80 °F 81 °F 89 °F (1880)
Min Temperature 69 °F 72 °F 57 °F (1913)
Degree Days  
Heating Degree Days 0 0  
Month to date heating degree days 0 0  
Since 1 July heating degree days 0 0  
Cooling Degree Days 10 11  
Month to date cooling degree days 89 134  
Year to date cooling degree days 4425 4342  
Growing Degree Days 24 (Base 50)    
Moisture  
Dew Point 63 °F    
Average Humidity 66    
Maximum Humidity 78    
Minimum Humidity 54    
Precipitation  
Precipitation 0.00 in 0.07 in 0.35 in (1963)
Month to date precipitation 0.01 0.95  
Year to date precipitation 46.21 36.26  
Snow  
Snow 0.00 in - - ()
Month to date snowfall 0.0  
Since 1 July snowfall 0.0  
Since 1 September snowfall 0.0  
Snow Depth 0.00 in    
Sea Level Pressure  
Sea Level Pressure 30.17 in    
Wind  
Wind Speed 10 mph (NE)    
Max Wind Speed 18 mph    
Max Gust Speed 24 mph    
Visibility 10 miles    
Events      
T = Trace of Precipitation, MM = Missing Value Source: NWS Daily Summary

Daily Weather History Graph

Daily Weather History Graph

Search for Another Location

Airport:

Trip Planner

Search our weather history database for the weather conditions in past years. The results will help you decide how hot, cold, wet, or windy it might be!

Date:

Astronomy

Nov. 11, 2012 Rise Set
Actual Time 6:40 AM EST 5:41 PM EST
Civil Twilight 6:16 AM EST 6:05 PM EST
Nautical Twilight 5:49 AM EST 6:32 PM EST
Astronomical Twilight 5:22 AM EST 6:59 PM EST
Moon 4:06 AM EST (11/11) 3:54 PM EST (11/11)
Length of Visible Light 11h 48m
Length of Day
11h 00m
Waning Crescent, 7% of the Moon is Illuminated
Nov 11
Waning Crescent
Nov 13
New
Nov 20
First Quarter
Nov 28
Full
Dec 6
Last Quarter

Hourly Weather History & Observations

Time (EST) Temp. Dew Point Humidity Pressure Visibility Wind Dir Wind Speed Gust Speed Precip Events Conditions
12:53 AM 70.0 °F 61.0 °F 73% 30.17 in 10.0 mi NNE 10.4 mph - N/A   Mostly Cloudy
1:53 AM 70.0 °F 61.0 °F 73% 30.17 in 10.0 mi NNE 8.1 mph - N/A   Mostly Cloudy
2:53 AM 70.0 °F 62.1 °F 76% 30.14 in 10.0 mi NE 8.1 mph - N/A   Mostly Cloudy
3:53 AM 69.1 °F 62.1 °F 78% 30.14 in 10.0 mi NE 8.1 mph - N/A   Scattered Clouds
4:53 AM 69.1 °F 63.0 °F 81% 30.15 in 10.0 mi NE 6.9 mph - N/A   Overcast
5:53 AM 69.1 °F 62.1 °F 78% 30.16 in 10.0 mi NE 6.9 mph - N/A   Partly Cloudy
6:53 AM 69.1 °F 62.1 °F 78% 30.17 in 10.0 mi NNE 6.9 mph - N/A   Mostly Cloudy
7:53 AM 71.1 °F 62.1 °F 73% 30.18 in 10.0 mi NE 9.2 mph - N/A   Mostly Cloudy
8:53 AM 73.9 °F 63.0 °F 68% 30.19 in 10.0 mi ENE 10.4 mph - N/A   Clear
9:53 AM 75.9 °F 63.0 °F 64% 30.20 in 10.0 mi NE 9.2 mph - N/A   Partly Cloudy
10:53 AM 77.0 °F 64.9 °F 66% 30.20 in 10.0 mi ENE 10.4 mph - N/A   Partly Cloudy
11:53 AM 79.0 °F 61.0 °F 54% 30.18 in 10.0 mi East 13.8 mph 18.4 mph N/A   Partly Cloudy
12:53 PM 78.1 °F 63.0 °F 60% 30.16 in 10.0 mi East 13.8 mph 20.7 mph N/A   Mostly Cloudy
1:53 PM 79.0 °F 63.0 °F 58% 30.14 in 10.0 mi East 17.3 mph 21.9 mph N/A   Clear
2:53 PM 79.0 °F 64.0 °F 60% 30.14 in 10.0 mi ENE 11.5 mph 19.6 mph N/A   Clear
3:53 PM 78.1 °F 62.1 °F 58% 30.14 in 10.0 mi ENE 12.7 mph 21.9 mph N/A   Clear
4:53 PM 77.0 °F 63.0 °F 62% 30.14 in 10.0 mi ENE 15.0 mph 19.6 mph N/A   Clear
5:53 PM 75.0 °F 63.0 °F 66% 30.15 in 10.0 mi ENE 9.2 mph 17.3 mph N/A   Clear
6:53 PM 73.9 °F 63.0 °F 68% 30.16 in 10.0 mi ENE 8.1 mph 17.3 mph N/A   Clear
7:53 PM 73.0 °F 63.0 °F 71% 30.17 in 10.0 mi NE 8.1 mph - N/A   Clear
8:53 PM 73.9 °F 63.0 °F 68% 30.18 in 10.0 mi ENE 5.8 mph - N/A   Mostly Cloudy
9:53 PM 73.0 °F 63.0 °F 71% 30.18 in 10.0 mi NE 6.9 mph - N/A   Mostly Cloudy
10:53 PM 73.0 °F 64.0 °F 73% 30.18 in 10.0 mi NE 10.4 mph 18.4 mph N/A   Mostly Cloudy
11:53 PM 72.0 °F 64.9 °F 78% 30.18 in 10.0 mi NE 5.8 mph - N/A   Scattered Clouds